DW4393 Weather Reports


Display with metric or nautical units.
time (UTC)temp
F
wind
direction
speed
MPH
gust
MPH
rain 1hr
in
rain 24hr
in
rain mn
in
humidity
%
barometer
mb
20190219094312 45 67 0.0 2.0 0.00 0.02 0.00 65 1025.7
20190219093337 45 67 0.0 5.0 0.00 0.02 0.00 64 1025.6
20190219085302 45 27 2.0 6.0 0.00 0.04 0.00 65 1026.3
20190219083330 45 1 3.0 7.0 0.00 0.04 0.00 63 1026.4
20190219082317 46 355 3.0 6.0 0.00 0.04 0.00 64 1026.5
20190219080314 46 3 3.0 5.0 0.00 0.04 0.00 63 1026.1
20190219075302 46 11 1.0 5.0 0.00 0.04 0.00 63 1026.3
20190219071336 46 15 2.0 6.0 0.00 0.04 0.00 61 1026.1
20190219065330 46 331 2.0 5.0 0.00 0.04 0.00 62 1026.0
20190219064322 46 14 2.0 6.0 0.00 0.04 0.00 60 1026.0
20190219063303 46 341 3.0 7.0 0.00 0.04 0.00 60 1026.2
20190219061305 47 337 2.0 7.0 0.00 0.04 0.00 59 1026.4
20190219060337 47 5 5.0 9.0 0.00 0.04 0.00 58 1026.3
20190219055258 47 341 3.0 5.0 0.00 0.04 0.00 59 1026.6
20190219054337 47 330 3.0 4.0 0.00 0.04 0.00 59 1026.5
20190219052319 47 341 3.0 6.0 0.00 0.04 0.00 59 1026.2
20190219051315 48 344 3.0 5.0 0.00 0.04 0.00 58 1026.4
20190219050330 48 340 4.0 6.0 0.00 0.04 0.00 58 1026.3
20190219045316 48 339 3.0 6.0 0.00 0.04 0.04 58 1025.8
20190219044308 48 340 4.0 6.0 0.00 0.04 0.04 59 1026.0
20190219043343 48 321 2.0 5.0 0.00 0.04 0.04 59 1026.1
20190219042324 48 341 3.0 7.0 0.00 0.05 0.04 59 1026.0
20190219041321 48 332 1.0 5.0 0.00 0.05 0.04 60 1026.4
20190219040300 48 338 2.0 6.0 0.00 0.05 0.04 60 1026.7
20190219035340 48 323 3.0 7.0 0.00 0.05 0.04 60 1026.6
20190219030337 49 327 2.0 5.0 0.00 0.06 0.04 59 1026.3
20190219025310 49 328 3.0 5.0 0.00 0.06 0.04 59 1026.1
20190219024310 49 332 2.0 5.0 0.00 0.06 0.04 59 1026.3
20190219023312 49 338 2.0 5.0 0.00 0.06 0.04 59 1026.0
20190219022319 49 340 3.0 5.0 0.00 0.06 0.04 59 1025.8
20190219021332 50 332 3.0 4.0 0.00 0.06 0.04 58 1025.7
20190219015306 50 331 1.0 3.0 0.00 0.06 0.04 58 1025.9
20190219014304 50 333 0.0 4.0 0.00 0.06 0.04 57 1025.5
20190219012339 50 338 2.0 4.0 0.00 0.06 0.04 57 1025.0
20190219010315 51 11 1.0 3.0 0.00 0.06 0.04 53 1024.3
20190219004301 51 350 3.0 7.0 0.00 0.06 0.04 51 1024.5
20190219003343 51 304 2.0 4.0 0.00 0.06 0.04 51 1024.8
20190219002304 52 331 1.0 6.0 0.00 0.06 0.04 50 1024.7
20190218235312 53 336 1.0 4.0 0.00 0.06 0.04 47 1023.5
20190218234332 53 327 3.0 6.0 0.00 0.06 0.04 46 1023.8
20190218233310 53 319 2.0 4.0 0.00 0.06 0.04 45 1023.7
20190218231340 54 339 2.0 6.0 0.00 0.06 0.04 40 1022.7
20190218225313 55 6 2.0 6.0 0.00 0.06 0.04 35 1022.8
20190218224301 56 325 3.0 9.0 0.00 0.06 0.04 38 1022.5
20190218222333 57 326 4.0 7.0 0.00 0.06 0.04 32 1022.6
20190218221309 58 333 5.0 9.0 0.00 0.06 0.04 33 1022.3
20190218220303 58 329 5.0 9.0 0.00 0.06 0.04 31 1021.9
20190218215339 58 339 2.0 12.0 0.00 0.06 0.04 28 1022.1
20190218213317 59 327 6.0 12.0 0.00 0.06 0.04 27 1021.8
20190218212324 60 348 5.0 11.0 0.00 0.06 0.04 25 1021.7
20190218210306 60 355 7.0 14.0 0.01 0.06 0.04 24 1021.4
20190218203306 60 13 5.0 16.0 0.01 0.06 0.04 31 1021.3
20190218202300 60 358 6.0 12.0 0.01 0.06 0.04 33 1021.5
20190218201301 60 343 6.0 15.0 0.00 0.05 0.03 33 1021.4
20190218200317 60 329 7.0 15.0 0.00 0.05 0.03 38 1021.4
20190218193324 58 346 6.0 12.0 0.00 0.05 0.03 42 1021.5
20190218192321 59 330 6.0 10.0 0.00 0.05 0.03 44 1021.4
20190218184300 60 4 5.0 15.0 0.00 0.05 0.03 39 1021.6
20190218182304 59 320 7.0 13.0 0.00 0.05 0.03 45 1022.1
20190218181300 59 340 4.0 9.0 0.00 0.05 0.03 48 1022.1
20190218180325 58 348 6.0 11.0 0.00 0.05 0.03 44 1022.1
20190218174259 58 341 8.0 14.0 0.00 0.06 0.03 45 1021.9
20190218171316 57 347 6.0 11.0 0.00 0.06 0.03 57 1022.0
20190218165324 56 318 5.0 10.0 0.00 0.07 0.03 61 1021.9
20190218164300 55 348 5.0 12.0 0.00 0.07 0.03 63 1021.9
20190218163304 55 343 6.0 12.0 0.00 0.07 0.03 64 1021.8
20190218162336 54 342 5.0 11.0 0.00 0.07 0.03 69 1021.6
20190218160315 52 340 6.0 13.0 0.00 0.07 0.03 73 1021.5
20190218155332 51 343 5.0 11.0 0.00 0.07 0.03 75 1021.3
20190218153304 50 330 8.0 13.0 0.00 0.08 0.03 78 1021.2
20190218152343 50 331 5.0 13.0 0.00 0.09 0.03 80 1020.7
20190218150345 49 328 3.0 9.0 0.00 0.09 0.03 84 1020.9
20190218144259 48 329 3.0 12.0 0.00 0.09 0.03 86 1020.2
20190218142330 48 329 7.0 15.0 0.00 0.09 0.03 87 1019.9
20190218140318 47 341 4.0 15.0 0.00 0.09 0.03 90 1019.5
20190218135310 47 320 5.0 11.0 0.00 0.09 0.03 91 1019.3
20190218134303 47 317 4.0 9.0 0.00 0.09 0.03 94 1019.0
20190218132345 47 325 3.0 10.0 0.00 0.09 0.03 95 1018.5
20190218131304 46 330 5.0 9.0 0.00 0.09 0.03 94 1018.4
20190218122329 47 339 3.0 7.0 0.00 0.09 0.03 96 1016.9
20190218115336 47 334 3.0 9.0 0.00 0.09 0.03 98 1015.9
20190218114315 48 338 5.0 10.0 0.00 0.09 0.03 98 1015.6
20190218112319 48 301 2.0 6.0 0.00 0.09 0.03 99 1015.5
20190218110332 47 328 0.0 2.0 0.00 0.10 0.03 99 1014.8
20190218105300 47 328 0.0 0.0 0.00 0.10 0.03 99 1014.7
20190218104326 47 328 0.0 0.0 0.01 0.10 0.03 99 1014.7
20190218103331 47 328 0.0 0.0 0.01 0.10 0.03 99 1014.6
20190218102344 47 328 0.0 0.0 0.01 0.10 0.03 99 1014.5
20190218101306 47 328 0.0 0.0 0.01 0.10 0.03 99 1014.7